SCP
0 0 0 0 0 0 0 0 0 0 0 0 0 0 0 0 0 0 0 0 0 0 0 0 0 0 0 0 0 0 0 0 0 0 0 0 0 0
0 0 0 0 0 0 0 0 0 0 0 0 0 0 0 0 0 0 0 0 0 0 0 0 0 0 0 0 0 0 0 0 0 0 0 0 0 0
0 0 0 0 0 0 0 0 0 0 0 0 0 0 0 0 0 0 0 0 0 0 0 0 0 0 0 0 0 0 0 0 0 0 0 0 0 0
0 0 0 0 0 0 0 0 0 0 0 0 0 0 0 0 0 0 0 0 0 0 0 0 0 0 0 0 0 0 0 0 0 0 0 0 0 0
0 0 0 0 0 0 0 0 0 0 0 0 0 0 0 0 0 0 0 0 0 0 0 0 0 0 0 0 0 0 0 0 0 0 0 0 0 0
0 0 0 0 0 0 0 0 0 0 0 0 0 0 0 0 0 0 0 0 0 0 0 0 0 0 0 0 0 0 0 0 0 0 0 0 0 0
0 0 0 0 0 0 0 0 0 0 0 0 0 0 0 0 0 0 0 0 0 0 0 0 0 0 0 0 0 0 0 0 0 0 0 0 0 0
0 0 0 0 0 0 0 0 0 0 0 0 0 0 0 0 0 0 0 0 0 0 0 0 0 0 0 0 0 0 0 0 0 0 0 0 0 0
0 0 0 0 0 0 0 0 0 0 0 0 0 0 0 0 0 0 0 0 0 0 0 0 0 0 0 0 0 0 0 0 0 0 0 0 0 0
0 0 0 0 0 0 0 0 0 0 0 0 0 0 0 0 0 0 0 0 0 0 0 0 0 0 0 0 0 0 0 0 0 0 0 0 0 0
0 0 0 0 0 0 0 0 0 0 0 0 0 0 0 0 0 0 0 0 0 0 0 0 0 0 0 0 0 0 0 0 0 0 0 0 0 0
0 0 0 0 0 0 0 0 0 0 0 0 0 0 0 0 0 0 0 0 0 0 0 0 0 0 0 0 0 0 0 0 0 0 0 0 0 0
0 0 0 0 0 0 0 0 0 0 0 0 0 0 0 0 0 0 0 0 0 0 0 0 0 0 0 0 0 0 0 0 0 0 0 0 0 0
0 0 0 0 0 0 0 0 0 0 0 0 0 0 0 0 0 0 0 0 0 0 0 0 0 0 0 0 0 0 0 0 0 0 0 0 0 0
0 0 0 0 0 0 0 0 0 0 0 0 0 0 0 0 0 0 0 0 0 0 0 0 0 0 0 0 0 0 0 0 0 0 0 0 0 0
0 0 0 0 0 0 0 0 0 0 0 0 0 0 0 0 0 0 0 0 0 0 0 0 0 0 0 0 0 0 0 0 0 0 0 0 0 0
0 0 0 0 0 0 0 0 0 0 0 0 0 0 0 0 0 0 0 0 0 0 0 0 0 0 0 0 0 0 0 0 0 0 0 0 0 0
0 0 0 0 0 0 0 0 0 0 0 0 0 0 0 0 0 0 0 0 0 0 0 0 0 0 0 0 0 0 0 0 0 0 0 0 0 0
0 0 0 0 0 0 0 0 0 0 0 0 0 0 0 0 0 0 0 0 0 0 0 0 0 0 0 0 0 0 0 0 0 0 0 0 0 0
0 0 0 0 0 0 0 0 0 0 0 0 0 0 0 0 0 0 0 0 0 0 0 0 0 0 0 0 0 0 0 0 0 0 0 0 0 0
0 0 0 0 0 0 0 0 0 0 0 0 0 0 0 0 0 0 0 0 0 0 0 0 0 0 0 0 0 0 0 0 0 0 0 0 0 0
0 0 0 0 0 0 0 0 0 0 0 0 0 0 0 0 0 0 0 0 0 0 0 0 0 0 0 0 0 0 0 0 0 0 0 0 0 0
0 0 0 0 0 0 0 0 0 0 0 0 0 0 0 0 0 0 0 0 0 0 0 0 0 0 0 0 0 0 0 0 0 0 0 0 0 0
Wind_Speed
6 6 5 4 3 3 3 4 4 5 5 4 3 4 4 4 5 5 6 8 11 11 10 10 10 11 12 12 12 13 13 12 12 12 12 12 13 12
4 5 5 3 3 3 3 3 4 4 5 4 3 4 4 4 5 6 7 9 9 9 9 9 10 11 11 11 12 12 12 11 11 11 12 12 13 12
5 5 5 4 3 3 3 3 3 3 5 4 3 4 5 5 5 5 5 6 5 7 9 10 10 10 11 11 11 11 11 10 11 11 11 11 12 11
5 5 5 3 4 3 3 3 3 3 4 5 4 4 5 5 5 6 5 4 5 6 8 9 9 9 10 10 10 10 10 9 9 9 10 11 11 11
5 5 4 4 4 3 3 3 3 3 3 4 4 3 3 4 5 5 5 4 4 4 6 6 7 9 9 9 8 9 8 8 8 9 9 10 10 10
4 4 4 4 4 4 3 3 3 3 3 3 3 3 3 3 3 3 4 3 3 3 4 4 5 7 8 7 6 7 6 7 7 8 8 8 8 9
3 3 4 4 4 4 3 3 3 3 3 3 3 3 2 2 3 3 3 3 4 3 3 3 3 4 4 4 5 5 4 5 6 6 7 7 7 8
3 2 3 3 3 3 4 4 4 4 4 3 3 3 3 3 3 3 2 3 3 2 3 4 3 3 3 3 4 5 4 4 5 5 6 6 7 7
3 2 2 2 2 2 2 3 4 4 5 4 4 4 4 3 3 3 3 4 4 3 3 3 3 3 3 3 5 5 5 5 5 5 5 5 6 7
2 2 2 2 2 2 2 2 3 3 3 3 3 3 3 3 3 3 3 3 3 3 2 2 3 3 3 3 5 5 5 6 6 6 6 6 6 7
2 2 2 2 2 2 1 2 2 2 2 1 2 2 3 3 2 1 1 1 2 2 2 2 2 3 3 2 3 5 5 6 7 7 8 7 7 7
1 1 2 2 2 2 2 1 1 1 1 2 2 2 1 1 1 1 1 1 2 2 2 1 1 2 2 2 3 4 4 5 7 7 8 7 8 5
1 1 0 1 2 2 1 1 1 1 1 1 1 2 2 2 2 2 2 1 1 2 2 1 1 1 1 2 3 3 3 4 4 5 6 7 8 6
1 1 1 1 1 1 2 2 2 1 1 1 1 2 2 2 2 3 3 2 1 2 2 2 1 1 1 2 2 3 3 3 4 4 4 6 6 6
1 1 1 1 1 1 2 2 1 1 1 1 1 1 2 2 2 2 3 3 3 2 2 2 1 1 1 1 2 3 3 3 4 4 4 4 4 4
1 2 2 2 2 2 2 2 1 1 1 1 1 1 1 2 2 2 2 2 2 2 3 2 2 1 1 2 2 3 3 3 3 4 4 4 4 3
1 1 1 1 1 1 1 1 1 1 1 1 1 1 1 1 2 2 1 1 1 2 2 3 3 2 1 1 1 2 2 3 3 4 4 4 4 4
0 0 1 1 1 1 1 1 1 1 1 1 1 1 1 1 1 1 1 1 1 1 2 2 2 2 1 1 2 2 2 3 4 4 3 3 4 4
0 0 0 1 1 1 1 1 1 1 1 0 0 0 1 1 1 1 1 1 1 1 2 2 2 2 2 2 3 2 3 3 4 3 3 3 3 4
0 0 1 1 1 1 1 1 1 1 0 0 0 0 0 0 0 0 1 1 1 1 2 2 2 2 2 2 2 3 4 4 3 3 3 3 3 3
0 1 1 1 1 1 1 1 1 1 1 1 0 0 0 0 0 1 1 1 1 1 1 2 3 3 2 1 1 2 3 4 4 3 4 3 3 3
1 1 1 1 1 1 1 1 1 1 1 1 0 0 0 0 1 1 0 1 1 1 1 2 2 2 1 1 2 3 4 4 4 4 3 3 3 3
1 1 1 1 1 1 1 1 1 1 1 1 0 0 0 0 0 0 0 0 1 1 1 1 2 2 2 1 2 2 4 4 4 4 3 4 3 3
Wind_Direction
246 246 247 252 250 252 251 249 251 266 272 270 274 270 277 274 277 273 274 270 273 271 272 275 280 279 278 278 282 282 284 280 280 280 280 284 281 282
248 247 250 252 252 251 245 254 256 259 266 270 276 284 281 282 282 279 277 279 265 266 271 277 279 277 276 276 281 282 281 282 281 285 283 286 286 285
248 243 246 252 251 248 245 243 249 256 265 282 286 287 287 286 285 286 288 283 271 269 275 278 279 281 278 276 280 280 282 282 282 285 290 290 293 291
248 245 248 252 255 252 244 243 247 252 256 270 281 286 289 290 294 294 293 285 281 280 282 283 285 290 287 277 276 279 280 282 283 288 294 294 293 295
245 246 252 251 254 259 258 246 248 253 256 261 277 293 295 292 294 293 295 293 288 287 285 289 294 296 295 284 275 277 278 280 284 290 297 297 297 298
252 251 252 251 248 254 253 247 244 249 252 257 270 285 294 298 294 297 301 308 308 307 302 303 301 300 300 305 294 283 280 284 288 294 296 298 298 299
260 257 258 261 262 267 259 242 231 234 240 248 262 280 287 298 295 294 298 312 309 312 318 316 307 299 296 307 311 298 284 288 290 297 304 307 306 304
255 262 260 259 261 273 267 260 248 235 236 245 258 264 280 287 294 290 297 304 304 325 320 308 305 309 319 327 336 334 330 307 299 303 309 315 315 310
253 262 269 272 274 261 262 258 261 264 264 259 259 267 275 279 279 282 288 300 303 317 318 309 321 319 330 344 342 337 337 340 341 343 342 334 327 318
273 265 257 266 271 269 266 269 281 282 275 271 278 281 287 283 276 278 285 304 309 317 322 311 325 327 335 340 354 350 353 357 356 356 354 351 347 342
278 267 258 262 267 272 270 273 290 311 329 314 317 324 326 316 308 298 284 301 313 326 341 315 335 341 332 333 5 13 6 4 7 6 4 8 3 353
294 268 255 267 277 272 266 258 272 315 350 1 5 17 354 346 314 268 269 282 319 326 351 338 329 341 338 355 2 3 5 7 6 2 2 5 360 351
319 319 316 312 299 306 315 326 358 357 11 19 13 14 19 12 3 2 354 324 313 312 330 338 342 343 324 319 342 354 351 352 354 356 1 3 357 353
320 328 22 27 359 13 23 61 63 33 30 28 22 21 20 11 7 12 17 14 350 313 310 308 278 295 313 312 318 337 346 349 350 349 352 359 0 358
36 63 49 49 35 48 75 71 46 36 45 34 25 17 14 8 6 16 29 33 23 4 334 322 312 300 305 300 307 322 332 344 349 348 349 349 348 346
62 79 66 53 52 60 56 40 25 21 27 28 26 21 14 16 12 7 14 16 18 20 19 10 359 358 323 300 297 311 325 326 339 345 344 346 347 345
58 48 29 37 47 43 34 25 23 24 34 41 44 27 18 14 3 6 12 3 18 14 12 14 9 1 346 315 304 315 327 331 332 338 341 345 348 347
107 96 35 14 17 16 12 4 7 16 25 34 17 13 0 350 351 359 2 5 22 16 7 4 7 6 9 34 356 315 332 337 335 336 335 339 344 350
105 76 18 344 341 336 328 331 342 354 0 360 354 338 324 319 330 345 357 1 8 8 0 350 350 357 359 0 10 11 341 337 336 336 338 334 331 335
32 311 305 309 307 303 303 306 317 339 335 311 305 308 307 295 293 309 330 354 356 356 353 354 358 356 343 331 323 329 336 329 331 333 333 328 324 317
329 299 291 292 295 304 308 301 299 299 305 300 289 310 290 261 269 301 329 345 342 342 345 350 353 337 312 298 303 324 345 350 330 318 323 324 330 341
280 277 282 288 291 293 290 274 269 277 278 271 277 290 264 246 253 274 297 322 347 349 344 347 347 342 349 6 344 334 337 348 358 354 341 325 320 328
267 270 279 284 277 272 263 254 250 265 272 266 253 270 277 279 276 263 296 350 3 358 348 351 359 6 6 355 343 341 341 344 348 358 6 4 343 303